Location: Unspecified
(0.0000°N, 0.0000°E)
Time: 04:58:20
(UTC+00:00)

Tiros 1 despin weight - Pass Details

Date: 05 October 2020
Orbit: 594 x 641 km, 48.2° (Epoch: 28 October)

Event Time Altitude Azimuth Distance (km) Brightness Sun altitude
Rises 17:38:17 0° 325° (NW) 2,910 ? 2.5°
Reaches altitude 10° 17:40:37 10° 328° (NNW) 2,010 ? 1.9°
Maximum altitude 17:45:13 68° 51° (NE) 685 ? 0.7°
Drops below altitude 10° 17:49:52 10° 134° (SE) 2,027 ? -0.4°
Sets 17:52:13 0° 137° (SE) 2,937 ? -1.0°
